"2016-07-01 00:00:00",1769689,5.365,99.9,2.294,0.125,20.35,106.8089,16.71,17.75,70.04,0,110.7,13.14,17.52,61.9
"2016-07-01 00:00:30",1769690,5.212,102.8,1.424,0.081,20.38,106.7945,16.67,17.74,70.05,0,110.7,13.14,17.48,64.8
"2016-07-01 00:01:00",1769691,4.868,99.9,1.629,0.214,20.43,106.7928,16.66,17.73,70.13,0,110.7,13.13,17.47,61.9
"2016-07-01 00:01:30",1769692,5.203,93.7,2.676,0.309,20.5,106.7928,16.66,17.72,70.25,0,110.7,13.13,17.47,55.7
"2016-07-01 00:02:00",1769693,5.161,104.3,2.08,0.212,20.31,106.7928,16.66,17.72,70.58,0,110.7,13.13,17.47,66.3
"2016-07-01 00:02:30",1769694,5.377,98.4,4.676,0.156,20.33,106.7925,16.66,17.7,70.75,0,110.7,13.13,17.47,60.4
"2016-07-01 00:03:00",1769695,5.545,96.1,1.246,0.256,20.39,106.7928,16.66,17.69,70.75,0,110.7,13.13,17.47,58.1
"2016-07-01 00:03:30",1769696,6.103,97.7,1.391,0.176,20.41,106.7892,16.65,17.69,70.36,0,110.7,13.13,17.47,59.7
"2016-07-01 00:04:00",1769697,6.232,96.9,1.881,0.356,20.45,106.7844,16.64,17.67,69.98,0,110.7,13.13,17.45,58.9
"2016-07-01 00:04:30",1769698,6.846,99.1,1.603,0.106,20.47,106.7686,16.6,17.66,69.3,0,110.7,13.13,17.41,61.1
"2016-07-01 00:05:00",1769699,7.034,98.6,0.799,0.233,20.43,106.7596,16.58,17.63,68.85,0,110.7,13.13,17.39,60.6
"2016-07-01 00:05:30",1769700,6.893,97.1,1.772,0.223,20.41,106.759,16.58,17.62,68.48,0,110.7,13.13,17.39,59.1
"2016-07-01 00:06:00",1769701,7.041,98,1.561,0.173,20.43,106.759,16.58,17.63,68.5,0,110.7,13.14,17.39,60.0
"2016-07-01 00:06:30",1769702,7.062,100.4,2.758,0.112,20.47,106.759,16.58,17.6,68.16,0,110.7,13.14,17.39,62.4
"2016-07-01 00:07:00",1769703,6.812,103.3,1.163,0.075,20.43,106.7588,16.58,17.6,67.81,0,110.7,13.14,17.39,65.3
"2016-07-01 00:07:30",1769704,6.984,101.8,2.253,0.15,20.46,106.7573,16.57,17.59,67.3,0,110.7,13.14,17.38,63.8
"2016-07-01 00:08:00",1769705,7.202,96.9,1.4,0.237,20.39,106.7534,16.56,17.57,67,0,110.7,13.14,17.37,58.9
"2016-07-01 00:08:30",1769706,6.884,98.4,1.954,0.168,20.39,106.7503,16.56,17.57,66.69,0,110.7,13.14,17.37,60.4
"2016-07-01 00:09:00",1769707,6.977,97,1.555,0.193,20.34,106.7427,16.54,17.56,66.4,0,110.7,13.14,17.35,59.0
"2016-07-01 00:09:30",1769708,6.716,92.3,2.525,0.107,20.33,106.7278,16.5,17.54,65.98,0,110.7,13.14,17.31,54.3
"2016-07-01 00:10:00",1769709,6.679,92,3.13,0.25,20.4,106.7252,16.49,17.55,65.24,0,110.7,13.14,17.30,54.0
"2016-07-01 00:10:30",1769710,6.394,98.4,2.141,0.288,20.41,106.7252,16.49,17.53,64.92,0,110.7,13.14,17.30,60.4
"2016-07-01 00:11:00",1769711,6.089,105.4,5.891,0.663,20.37,106.7252,16.49,17.52,65.48,0,110.7,13.14,17.30,67.4
"2016-07-01 00:11:30",1769712,6.592,95.6,3.768,0.215,20.26,106.7252,16.49,17.53,65.77,0,110.7,13.14,17.30,57.6
"2016-07-01 00:12:00",1769713,7.09,102.2,1.725,0.288,20.27,106.7252,16.49,17.53,66.6,0,110.7,13.14,17.30,64.2
"2016-07-01 00:12:30",1769714,8.2,99.1,2.333,0.213,20.39,106.7252,16.49,17.54,67.54,0,110.7,13.14,17.30,61.1
"2016-07-01 00:13:00",1769715,7.836,91.7,3.861,0.362,20.33,106.7252,16.49,17.54,67.98,0,110.7,13.14,17.30,53.7
"2016-07-01 00:13:30",1769716,7.911,91.3,1.839,0.284,20.24,106.7252,16.49,17.52,68.26,0,110.7,13.14,17.30,53.3
"2016-07-01 00:14:00",1769717,7.185,93.5,2.319,0.352,20.19,106.7252,16.49,17.52,68.46,0,110.7,13.14,17.30,55.5
"2016-07-01 00:14:30",1769718,6.508,95.8,2.837,0.307,20.2,106.7252,16.49,17.51,68.74,0,110.7,13.15,17.30,57.8
"2016-07-01 00:15:00",1769719,5.967,100.5,3.023,0.318,20.19,106.7241,16.49,17.5,68.88,0,110.7,13.15,17.30,62.5
"2016-07-01 00:15:30",1769720,7.488,98.2,2.381,0.259,20.39,106.7154,16.47,17.5,69.07,0,110.7,13.14,17.28,60.2
"2016-07-01 00:16:00",1769721,8.07,96.1,2.183,0.423,20.41,106.7047,16.44,17.5,69.05,0,110.7,13.14,17.25,58.1
"2016-07-01 00:16:30",1769722,8.05,97.6,3.611,0.433,20.31,106.6917,16.41,17.48,68.95,0,110.7,13.14,17.21,59.6
"2016-07-01 00:17:00",1769723,7.367,94.2,2.03,0.587,20.23,106.6914,16.4,17.47,69.18,0,110.7,13.15,17.21,56.2
"2016-07-01 00:17:30",1769724,8,96.4,3.761,0.744,20.32,106.6914,16.4,17.46,69.23,0,110.7,13.14,17.21,58.4
"2016-07-01 00:18:00",1769725,7.541,97.4,2.402,0.444,20.29,106.6914,16.4,17.47,69.32,0,110.7,13.14,17.21,59.4
"2016-07-01 00:18:30",1769726,8.75,94.8,2.642,0.301,20.38,106.6914,16.4,17.44,69.36,0,110.7,13.14,17.21,56.8
"2016-07-01 00:19:00",1769727,7.316,98.5,5.57,0.364,20.29,106.6914,16.4,17.45,69.49,0,110.7,13.14,17.21,60.5
"2016-07-01 00:19:30",1769728,7.473,98.2,2.51,0.408,20.19,106.6914,16.4,17.44,69.63,0,110.7,13.14,17.21,60.2
"2016-07-01 00:20:00",1769729,7.843,100.2,4.596,0.378,20.34,106.6892,16.4,17.43,69.55,0,110.7,13.14,17.21,62.2
"2016-07-01 00:20:30",1769730,8.12,90.2,3.443,0.483,20.39,106.6819,16.38,17.43,69.38,0,110.7,13.14,17.19,52.2
"2016-07-01 00:21:00",1769731,9.29,97.9,5.003,0.987,20.26,106.6743,16.36,17.42,69.7,0,110.7,13.14,17.17,59.9
"2016-07-01 00:21:30",1769732,10.86,99.1,1.413,0.479,20.29,106.6658,16.34,17.41,70.03,0,110.7,13.14,17.15,61.1
"2016-07-01 00:22:00",1769733,10.83,99.4,1.638,0.362,20.28,106.6588,16.32,17.39,70.49,0,110.7,13.14,17.13,61.4
"2016-07-01 00:22:30",1769734,11.3,98.2,1.526,0.344,20.2,106.6576,16.32,17.4,70.74,0,110.7,13.14,17.13,60.2
"2016-07-01 00:23:00",1769735,10.38,98.7,1.363,0.552,20.27,106.6576,16.32,17.4,70.8,0,110.7,13.14,17.13,60.7
"2016-07-01 00:23:30",1769736,10.66,95.1,2.846,0.469,20.24,106.6574,16.32,17.37,70.62,0,110.7,13.14,17.13,57.1
"2016-07-01 00:24:00",1769737,9.77,94.8,1.796,0.502,20.29,106.6548,16.31,17.35,70.55,0,110.7,13.14,17.12,56.8
"2016-07-01 00:24:30",1769738,10.19,98.7,1.383,0.27,20.12,106.6498,16.3,17.34,71.49,0,110.7,13.15,17.11,60.7
"2016-07-01 00:25:00",1769739,9.47,96.4,2.019,0.278,20.14,106.6365,16.26,17.33,71.96,0,110.7,13.15,17.07,58.4
"2016-07-01 00:25:30",1769740,9.31,100.7,2.773,0.31,20.06,106.6239,16.23,17.32,72.25,0,110.7,13.15,17.04,62.7
"2016-07-01 00:26:00",1769741,9.56,100.7,1.714,0.271,20.12,106.6242,16.23,17.32,72.66,0,110.7,13.15,17.04,62.7
"2016-07-01 00:26:30",1769742,8.9,102.7,1.691,0.355,20.1,106.6239,16.23,17.3,72.96,0,110.7,13.15,17.04,64.7
"2016-07-01 00:27:00",1769743,9.34,101,1.343,0.113,20.09,106.6168,16.21,17.29,73.16,0,110.7,13.15,17.02,63.0
"2016-07-01 00:27:30",1769744,9.61,102.9,2.315,0.399,20.02,106.5968,16.16,17.28,73.55,0,110.7,13.15,16.97,64.9
"2016-07-01 00:28:00",1769745,9.37,103.4,1.486,0.184,20.02,106.5907,16.15,17.25,74.12,0,110.7,13.15,16.95,65.4
"2016-07-01 00:28:30",1769746,9.32,99.9,1.131,0.108,20.09,106.5907,16.15,17.25,74.36,0,110.7,13.15,16.95,61.9
"2016-07-01 00:29:00",1769747,9.26,97.9,1.411,0.111,20.07,106.5904,16.15,17.22,74.4,0,110.7,13.15,16.95,59.9
"2016-07-01 00:29:30",1769748,9.35,98.6,0.945,0.169,19.97,106.5794,16.12,17.22,74.41,0,110.7,13.15,16.93,60.6
"2016-07-01 00:30:00",1769749,9.78,94.4,2.92,0.452,19.84,106.5634,16.08,17.21,74.56,0,110.7,13.15,16.88,56.4
"2016-07-01 00:30:30",1769750,10.2,92.3,1.376,0.283,19.87,106.5596,16.07,17.17,74.5,0,110.7,13.15,16.87,54.3
"2016-07-01 00:31:00",1769751,9.71,89.9,0.674,0.192,19.96,106.5593,16.07,17.15,74.21,0,110.7,13.15,16.87,51.9
"2016-07-01 00:31:30",1769752,9.54,91.4,2.155,0.169,19.97,106.5515,16.05,17.13,73.92,0,110.7,13.15,16.85,53.4
"2016-07-01 00:32:00",1769753,9.63,98.2,1.503,0.311,19.93,106.5304,15.99,17.1,72.28,0,110.7,13.15,16.80,60.2
"2016-07-01 00:32:30",1769754,9.41,98.4,4.068,0.471,19.86,106.5285,15.99,17.07,70.59,0,110.7,13.15,16.79,60.4
"2016-07-01 00:33:00",1769755,9.67,103.4,0.848,0.1,19.64,106.5282,15.99,17.06,69.81,0,110.7,13.15,16.79,65.4
"2016-07-01 00:33:30",1769756,9.85,107.1,1.55,0.238,19.54,106.5274,15.98,17.05,69.88,0,110.7,13.15,16.79,69.1
"2016-07-01 00:34:00",1769757,10.25,106.9,1.614,0.271,19.51,106.5162,15.96,17.03,70.35,0,110.7,13.15,16.76,68.9
"2016-07-01 00:34:30",1769758,10.35,106.4,2.336,0.407,19.55,106.4976,15.91,17.01,71.31,0,110.7,13.15,16.72,68.4
"2016-07-01 00:35:00",1769759,10.01,110.2,1.436,0.377,19.51,106.4965,15.9,17,71.79,0,110.7,13.15,16.71,72.2
"2016-07-01 00:35:30",1769760,9.54,110.7,2.193,0.421,19.42,106.4946,15.9,16.97,71.61,0,110.7,13.15,16.71,72.7
"2016-07-01 00:36:00",1769761,9.15,112.7,2.938,0.391,19.22,106.4864,15.88,16.97,74,0,110.7,13.14,16.69,74.7
"2016-07-01 00:36:30",1769762,9.35,113,2.852,0.24,19.28,106.4639,15.82,16.96,74.84,0,110.7,13.14,16.63,75.0
"2016-07-01 00:37:00",1769763,9.43,113.3,1.198,0.267,19.26,106.4613,15.81,16.93,75.05,0,110.7,13.14,16.62,75.3
"2016-07-01 00:37:30",1769764,9.88,115,2.03,0.327,19.28,106.4369,15.75,16.91,75.6,0,110.7,13.14,16.56,77.0
"2016-07-01 00:38:00",1769765,9.43,116,3.403,0.383,19.23,106.4313,15.74,16.9,76.38,0,110.7,13.14,16.54,78.0
"2016-07-01 00:38:30",1769766,9.58,118.3,2.006,0.361,19.26,106.4121,15.69,16.87,77.11,0,110.7,13.14,16.50,80.3
"2016-07-01 00:39:00",1769767,9.38,122.1,3.809,0.364,19.27,106.3996,15.66,16.84,77.54,0,110.7,13.14,16.46,84.1
"2016-07-01 00:39:30",1769768,9.32,121,2.018,0.248,19.23,106.3921,15.64,16.8,78.12,0,110.7,13.15,16.44,83.0
"2016-07-01 00:40:00",1769769,9.17,118.7,2.646,0.344,19.3,106.3679,15.58,16.77,78.57,0,110.7,13.15,16.38,80.7
"2016-07-01 00:40:30",1769770,10.18,118.1,1.365,0.531,19.3,106.3523,15.54,16.75,78.47,0,110.7,13.15,16.34,80.1
"2016-07-01 00:41:00",1769771,10.34,121.2,2.646,0.613,19.26,106.3335,15.49,16.68,78.39,0,110.7,13.16,16.29,83.2
"2016-07-01 00:41:30",1769772,9.71,117.6,2.039,0.641,19.31,106.3229,15.46,16.67,78.65,0,110.7,13.16,16.27,79.6
"2016-07-01 00:42:00",1769773,8.48,118.9,3.164,0.409,19.35,106.3042,15.41,16.63,78.87,0,110.7,13.16,16.22,80.9
"2016-07-01 00:42:30",1769774,9.17,121.4,2.367,0.445,19.23,106.3021,15.41,16.58,79.3,0,110.7,13.16,16.21,83.4
"2016-07-01 00:43:00",1769775,9.1,119.9,6.328,0.533,19.32,106.284,15.36,16.54,79.63,0,110.7,13.16,16.17,81.9
"2016-07-01 00:43:30",1769776,9.58,115.6,4.075,0.322,19.33,106.2758,15.34,16.51,79.8,0,110.7,13.16,16.14,77.6
"2016-07-01 00:44:00",1769777,8.81,114.9,3.715,0.698,19.29,106.2742,15.34,16.49,79.89,0,110.7,13.16,16.14,76.9
"2016-07-01 00:44:30",1769778,9.03,117.5,4.876,0.645,19.31,106.2545,15.28,16.45,80.2,0,110.7,13.16,16.09,79.5
"2016-07-01 00:45:00",1769779,9.17,124,3.812,0.586,19.38,106.2491,15.27,16.42,80.5,0,110.7,13.16,16.08,86.0
"2016-07-01 00:45:30",1769780,10.03,114.5,2.426,0.544,19.45,106.2489,15.27,16.39,80.7,0,110.7,13.16,16.08,76.5
"2016-07-01 00:46:00",1769781,10.35,116,2.921,0.492,19.38,106.2304,15.22,16.37,80.7,0,110.7,13.16,16.03,78.0
"2016-07-01 00:46:30",1769782,10.69,113.7,1.657,0.558,19.47,106.2183,15.19,16.34,80.6,0,110.7,13.16,16.00,75.7
"2016-07-01 00:47:00",1769783,10.86,114.2,1.093,0.267,19.59,106.2192,15.19,16.28,80.5,0,110.7,13.16,16.00,76.2
"2016-07-01 00:47:30",1769784,9.61,119.3,2.523,0.382,19.47,106.2089,15.17,16.26,80.4,0,110.7,13.16,15.97,81.3
"2016-07-01 00:48:00",1769785,9.09,118.3,2.703,0.306,19.28,106.1979,15.14,16.23,80.7,0,110.7,13.16,15.94,80.3
"2016-07-01 00:48:30",1769786,10.07,120.4,2.918,0.599,19.37,106.1894,15.12,16.23,80.9,0,110.7,13.16,15.92,82.4
"2016-07-01 00:49:00",1769787,9.63,113.6,2.025,0.624,19.3,106.1866,15.11,16.21,81.1,0,110.7,13.16,15.92,75.6
"2016-07-01 00:49:30",1769788,10.3,115.9,2.92,0.432,19.51,106.1866,15.11,16.2,81.2,0,110.7,13.16,15.92,77.9
"2016-07-01 00:50:00",1769789,10.53,116.8,2.864,0.268,19.45,106.1866,15.11,16.17,80.8,0,110.7,13.16,15.92,78.8
"2016-07-01 00:50:30",1769790,10.04,114.6,3.244,0.269,19.34,106.1861,15.11,16.15,80.8,0,110.7,13.16,15.91,76.6
"2016-07-01 00:51:00",1769791,10.48,110.3,2.475,0.332,19.76,106.1796,15.09,16.14,80.9,0,110.7,13.16,15.90,72.3
"2016-07-01 00:51:30",1769792,10.55,112.4,1.585,0.256,19.51,106.1613,15.05,16.12,80.4,0,110.7,13.16,15.85,74.4
"2016-07-01 00:52:00",1769793,10.44,111.5,2.281,0.262,19.64,106.1553,15.03,16.1,80.2,0,110.7,13.16,15.84,73.5
"2016-07-01 00:52:30",1769794,10.36,112.8,2.992,0.457,19.61,106.1539,15.03,16.07,79.99,0,110.7,13.16,15.83,74.8
"2016-07-01 00:53:00",1769795,8.73,121.2,4.637,0.497,19.22,106.1604,15.04,16.06,80,0,110.7,13.15,15.85,83.2
"2016-07-01 00:53:30",1769796,7.677,115.9,3.884,0.393,19.32,106.1686,15.06,16.07,80.5,0,110.6,13.15,15.87,77.9
"2016-07-01 00:54:00",1769797,8.9,115.7,3.424,0.621,19.48,106.1579,15.04,16.08,80.7,0,110.6,13.16,15.84,77.7
"2016-07-01 00:54:30",1769798,9.96,113.6,1.748,0.314,19.48,106.1528,15.02,16.07,80.5,0,110.7,13.15,15.83,75.6
"2016-07-01 00:55:00",1769799,9.97,112,1.722,0.548,19.58,106.1528,15.02,16.06,80.3,0,110.6,13.15,15.83,74.0
"2016-07-01 00:55:30",1769800,9.66,111.4,1.599,0.343,19.5,106.1528,15.02,16.06,80.2,0,110.6,13.16,15.83,73.4
"2016-07-01 00:56:00",1769801,9.59,114.9,1.861,0.279,19.36,106.1528,15.02,16.06,80.2,0,110.6,13.15,15.83,76.9
"2016-07-01 00:56:30",1769802,9.6,113.5,1.393,0.18,19.43,106.1528,15.02,16.05,80.3,0,110.6,13.16,15.83,75.5
"2016-07-01 00:57:00",1769803,9.36,107.7,2.012,0.471,19.62,106.1528,15.02,16.05,80.4,0,110.6,13.16,15.83,69.7
"2016-07-01 00:57:30",1769804,9.11,110.8,1.782,0.599,19.32,106.1528,15.02,16.05,80.4,0,110.6,13.16,15.83,72.8
"2016-07-01 00:58:00",1769805,9.19,110.4,2.069,0.254,19.38,106.1528,15.02,16.05,80.6,0,110.6,13.16,15.83,72.4
"2016-07-01 00:58:30",1769806,9.5,111.7,3.034,0.182,19.39,106.1528,15.02,16.06,80.7,0,110.6,13.16,15.83,73.7
"2016-07-01 00:59:00",1769807,9.23,107.2,1.396,0.268,19.65,106.1528,15.02,16.05,80.7,0,110.6,13.16,15.83,69.2
"2016-07-01 00:59:30",1769808,9.85,106.3,1.913,0.54,19.74,106.1528,15.02,16.04,80.5,0,110.6,13.16,15.83,68.3
"2016-07-01 01:00:00",1769809,9.83,106.3,2.479,0.256,19.86,106.1528,15.02,16.03,80.3,0,110.6,13.16,15.83,68.3
"2016-07-01 01:00:30",1769810,9.29,110.4,2.156,0.482,19.55,106.1528,15.02,16.02,80.2,0,110.6,13.16,15.83,72.4
"2016-07-01 01:01:00",1769811,8.49,111.1,1.24,0.224,19.36,106.1528,15.02,16.03,80.3,0,110.6,13.16,15.83,73.1
"2016-07-01 01:01:30",1769812,8.77,109.3,1.918,0.222,19.45,106.1528,15.02,16.04,80.5,0,110.6,13.16,15.83,71.3
"2016-07-01 01:02:00",1769813,8.99,109.8,2.005,0.229,19.24,106.1528,15.02,16.03,80.6,0,110.6,13.16,15.83,71.8
"2016-07-01 01:02:30",1769814,9.81,108.5,1.849,0.148,19.6,106.1528,15.02,16.04,80.7,0,110.6,13.16,15.83,70.5
"2016-07-01 01:03:00",1769815,9.37,108.1,1.982,0.256,19.53,106.1528,15.02,16.04,80.6,0,110.6,13.16,15.83,70.1
"2016-07-01 01:03:30",1769816,8.77,108.5,2.361,0.279,19.4,106.1528,15.02,16.04,80.6,0,110.6,13.17,15.83,70.5
"2016-07-01 01:04:00",1769817,9.44,106.6,2.158,0.372,19.72,106.1528,15.02,16.03,80.6,0,110.6,13.17,15.83,68.6
"2016-07-01 01:04:30",1769818,9.35,109.3,1.82,0.305,19.62,106.1528,15.02,16.02,80.4,0,110.6,13.17,15.83,71.3
"2016-07-01 01:05:00",1769819,9.25,107.8,2.281,0.331,19.49,106.1528,15.02,16.03,80.4,0,110.6,13.17,15.83,69.8
"2016-07-01 01:05:30",1769820,9.15,106.9,1.737,0.257,19.58,106.1531,15.02,16.03,80.5,0,110.6,13.17,15.83,68.9
"2016-07-01 01:06:00",1769821,9.09,107.5,3.496,0.131,19.64,106.1531,15.02,16.02,80.3,0,110.6,13.17,15.83,69.5
"2016-07-01 01:06:30",1769822,8.93,110.3,1.803,0.339,19.24,106.1528,15.02,16.02,80.4,0,110.6,13.17,15.83,72.3
"2016-07-01 01:07:00",1769823,8.53,106.5,2.718,0.422,19.34,106.1531,15.02,16.05,80.6,0,110.6,13.17,15.83,68.5
"2016-07-01 01:07:30",1769824,8.53,106.8,2.155,0.221,19.52,106.1531,15.02,16.04,80.7,0,110.6,13.17,15.83,68.8
"2016-07-01 01:08:00",1769825,8.49,106.8,2.465,0.242,19.45,106.1531,15.02,16.04,80.6,0,110.6,13.17,15.83,68.8
"2016-07-01 01:08:30",1769826,8.15,106.1,2.482,0.346,19.54,106.1528,15.02,16.03,80.6,0,110.6,13.17,15.83,68.1
"2016-07-01 01:09:00",1769827,7.864,105.9,2.775,0.284,19.42,106.1492,15.01,16.03,80.6,0,110.6,13.16,15.82,67.9
"2016-07-01 01:09:30",1769828,7.938,104.8,5.028,0.452,19.82,106.1464,15.01,16.03,80.5,0,110.6,13.16,15.81,66.8
"2016-07-01 01:10:00",1769829,7.991,110,4.01,0.349,19.39,106.1494,15.02,16.03,80.4,0,110.6,13.16,15.82,72.0
"2016-07-01 01:10:30",1769830,7.508,104.1,4.117,0.517,19.37,106.1486,15.01,16.02,80.5,0,110.6,13.16,15.82,66.1
"2016-07-01 01:11:00",1769831,7.649,107.7,3.7,0.595,19.52,106.1484,15.01,16.03,80.7,0,110.6,13.16,15.82,69.7
"2016-07-01 01:11:30",1769832,7.395,109,2.051,0.242,19.41,106.1473,15.01,16.01,80.6,0,110.6,13.16,15.81,71.0
"2016-07-01 01:12:00",1769833,7.494,104.7,2.307,0.676,19.51,106.1473,15.01,16.02,80.6,0,110.6,13.16,15.81,66.7
"2016-07-01 01:12:30",1769834,8.54,103,3.451,0.622,19.68,106.1469,15.01,16.01,80.5,0,110.6,13.16,15.81,65.0
"2016-07-01 01:13:00",1769835,8.59,105.6,2.797,0.502,19.46,106.1494,15.02,16,80.5,0,110.6,13.16,15.82,67.6
"2016-07-01 01:13:30",1769836,8.29,104.6,2.57,0.309,19.58,106.1492,15.01,16.01,80.5,0,110.6,13.16,15.82,66.6
"2016-07-01 01:14:00",1769837,8.26,101.6,2.92,0.623,19.56,106.1522,15.02,16.03,80.5,0,110.6,13.17,15.83,63.6
"2016-07-01 01:14:30",1769838,8.3,104.5,1.463,0.487,19.55,106.1552,15.03,16.01,80.5,0,110.6,13.17,15.83,66.5
"2016-07-01 01:15:00",1769839,8.77,101.2,2.197,0.217,19.68,106.1546,15.03,16.02,80.5,0,110.6,13.17,15.83,63.2
"2016-07-01 01:15:30",1769840,8.95,101.9,1.119,0.371,19.76,106.1612,15.05,16.03,80.5,0,110.6,13.17,15.85,63.9
"2016-07-01 01:16:00",1769841,9.52,103.8,2.315,0.263,19.67,106.1643,15.05,16.02,80.5,0,110.6,13.17,15.86,65.8
"2016-07-01 01:16:30",1769842,9.48,101.9,1.398,0.13,19.78,106.1681,15.06,16.02,80.5,0,110.6,13.17,15.87,63.9
"2016-07-01 01:17:00",1769843,9.59,102.7,1.419,0.225,19.82,106.1693,15.07,16.04,80.5,0,110.6,13.17,15.87,64.7
"2016-07-01 01:17:30",1769844,9.43,102.1,1.774,0.17,19.69,106.1704,15.07,16.05,80.5,0,110.6,13.17,15.87,64.1
"2016-07-01 01:18:00",1769845,8.55,106.3,1.798,0.227,19.43,106.1749,15.08,16.04,80.5,0,110.6,13.17,15.89,68.3
"2016-07-01 01:18:30",1769846,9.46,102.9,1.183,0.437,19.73,106.1737,15.08,16.06,80.5,0,110.6,13.17,15.88,64.9
"2016-07-01 01:19:00",1769847,9.13,103.4,1.774,0.329,19.62,106.1761,15.08,16.07,80.6,0,110.6,13.17,15.89,65.4
"2016-07-01 01:19:30",1769848,9.46,109,3.878,0.651,19.51,106.1755,15.08,16.09,80.6,0,110.6,13.17,15.89,71.0
"2016-07-01 01:20:00",1769849,9.02,104.7,2.191,0.275,19.59,106.1773,15.09,16.07,80.6,0,110.6,13.17,15.89,66.7
"2016-07-01 01:20:30",1769850,9.19,104.2,1.187,0.246,19.64,106.18,15.09,16.08,80.6,0,110.6,13.17,15.90,66.2
"2016-07-01 01:21:00",1769851,9.03,104.8,1.959,0.376,19.57,106.18,15.09,16.07,80.7,0,110.6,13.17,15.90,66.8
"2016-07-01 01:21:30",1769852,8.04,107.6,1.724,0.334,19.39,106.1806,15.1,16.08,80.7,0,110.6,13.17,15.90,69.6
"2016-07-01 01:22:00",1769853,9.19,104.6,0.735,0.253,19.64,106.1815,15.1,16.09,80.7,0,110.6,13.17,15.90,66.6
"2016-07-01 01:22:30",1769854,9.36,106,1.756,0.228,19.54,106.1833,15.1,16.08,80.8,0,110.6,13.17,15.91,68.0
"2016-07-01 01:23:00",1769855,8.96,104.7,1.911,0.311,19.59,106.1836,15.1,16.08,80.8,0,110.6,13.17,15.91,66.7
"2016-07-01 01:23:30",1769856,8.48,105.3,0.967,0.215,19.55,106.1827,15.1,16.08,80.8,0,110.6,13.17,15.91,67.3
"2016-07-01 01:24:00",1769857,7.736,104.7,1.848,0.215,19.48,106.1851,15.11,16.09,80.8,0,110.6,13.17,15.91,66.7
"2016-07-01 01:24:30",1769858,7.743,105.6,1.762,0.429,19.43,106.1848,15.11,16.08,80.8,0,110.6,13.17,15.91,67.6
"2016-07-01 01:25:00",1769859,8.25,105.8,2.25,0.266,19.58,106.186,15.11,16.08,80.8,0,110.6,13.17,15.91,67.8
"2016-07-01 01:25:30",1769860,7.933,104.2,4.127,0.33,19.5,106.1884,15.12,16.07,80.7,0,110.6,13.17,15.92,66.2
"2016-07-01 01:26:00",1769861,7.739,108.3,2.341,0.28,19.51,106.1876,15.11,16.07,80.7,0,110.6,13.17,15.92,70.3
"2016-07-01 01:26:30",1769862,7.886,109.1,1.557,0.198,19.44,106.1833,15.1,16.06,80.6,0,110.6,13.17,15.91,71.1
"2016-07-01 01:27:00",1769863,7.849,107.5,2.272,0.243,19.39,106.1808,15.1,16.05,80.7,0,110.6,13.17,15.90,69.5
"2016-07-01 01:27:30",1769864,7.671,107.7,1.759,0.325,19.38,106.1774,15.09,16.05,80.7,0,110.6,13.16,15.89,69.7
"2016-07-01 01:28:00",1769865,7.942,109.2,1.792,0.195,19.44,106.1735,15.08,16.06,80.8,0,110.6,13.16,15.88,71.2
"2016-07-01 01:28:30",1769866,8.1,108.6,2.017,0.283,19.48,106.1662,15.06,16.06,80.8,0,110.6,13.16,15.86,70.6
"2016-07-01 01:29:00",1769867,7.891,106.4,1.656,0.371,19.52,106.1554,15.03,16.04,80.8,0,110.6,13.16,15.84,68.4
"2016-07-01 01:29:30",1769868,7.116,108.9,2.391,0.275,19.41,106.1549,15.03,16.03,80.8,0,110.6,13.16,15.83,70.9
"2016-07-01 01:30:00",1769869,7.603,110.4,1.048,0.258,19.39,106.1549,15.03,16.02,80.8,0,110.6,13.16,15.83,72.4
"2016-07-01 01:30:30",1769870,7.136,109.1,2.93,0.455,19.45,106.1549,15.03,16.02,80.8,0,110.6,13.16,15.83,71.1
"2016-07-01 01:31:00",1769871,6.395,107.6,2.076,0.282,19.41,106.1549,15.03,16.01,80.9,0,110.6,13.17,15.83,69.6
"2016-07-01 01:31:30",1769872,6.031,110,3.268,0.222,19.37,106.1538,15.03,16.01,81,0,110.6,13.17,15.83,72.0
"2016-07-01 01:32:00",1769873,6.518,109.6,2.915,0.344,19.43,106.1487,15.01,16.01,81.1,0,110.6,13.17,15.82,71.6
"2016-07-01 01:32:30",1769874,7.052,108.5,2.838,0.362,19.51,106.1445,15,15.99,81.1,0,110.6,13.17,15.81,70.5
"2016-07-01 01:33:00",1769875,7.18,111.9,4.034,0.355,19.46,106.1318,14.97,15.99,81,0,110.6,13.17,15.77,73.9
"2016-07-01 01:33:30",1769876,6.79,104.4,2.454,0.25,19.53,106.123,14.95,15.99,81,0,110.6,13.17,15.75,66.4
"2016-07-01 01:34:00",1769877,7.368,110.9,3.597,0.411,19.42,106.1211,14.94,15.99,81,0,110.6,13.17,15.75,72.9
"2016-07-01 01:34:30",1769878,7.66,104,2.621,0.336,19.7,106.1211,14.94,15.97,81.1,0,110.6,13.17,15.75,66.0
"2016-07-01 01:35:00",1769879,7.434,108.1,1.92,0.24,19.64,106.1211,14.94,15.97,80.9,0,110.6,13.17,15.75,70.1
"2016-07-01 01:35:30",1769880,7.807,108.9,3.739,0.326,19.52,106.1211,14.94,15.95,80.7,0,110.6,13.17,15.75,70.9
"2016-07-01 01:36:00",1769881,7.031,106.2,2.106,0.537,19.53,106.1211,14.94,15.95,80.7,0,110.6,13.17,15.75,68.2
"2016-07-01 01:36:30",1769882,7.547,115.4,5.86,0.468,19.58,106.1211,14.94,15.95,80.8,0,110.6,13.18,15.75,77.4
"2016-07-01 01:37:00",1769883,8.11,113,3.01,0.552,19.61,106.1211,14.94,15.95,80.7,0,110.6,13.18,15.75,75.0
"2016-07-01 01:37:30",1769884,7.994,111.7,3.832,0.501,19.52,106.1211,14.94,15.95,80.7,0,110.6,13.18,15.75,73.7
"2016-07-01 01:38:00",1769885,7.216,110.5,4.51,0.422,19.54,106.1211,14.94,15.94,80.8,0,110.6,13.18,15.75,72.5
"2016-07-01 01:38:30",1769886,7.811,109.6,3.196,0.577,19.64,106.1211,14.94,15.94,80.8,0,110.6,13.18,15.75,71.6
"2016-07-01 01:39:00",1769887,7.138,107.3,3.458,0.439,19.54,106.1211,14.94,15.96,80.9,0,110.6,13.18,15.75,69.3
"2016-07-01 01:39:30",1769888,7.489,109.2,4.478,0.405,19.48,106.1211,14.94,15.94,80.9,0,110.6,13.18,15.75,71.2
"2016-07-01 01:40:00",1769889,7.345,105.8,3.915,0.245,19.6,106.1211,14.94,15.94,80.9,0,110.6,13.18,15.75,67.8
"2016-07-01 01:40:30",1769890,7.062,107,2.989,0.347,19.54,106.1211,14.94,15.95,80.9,0,110.6,13.18,15.75,69.0
"2016-07-01 01:41:00",1769891,7.917,107.7,3.036,0.373,19.57,106.1211,14.94,15.96,80.9,0,110.6,13.18,15.75,69.7
"2016-07-01 01:41:30",1769892,7.82,110,2.494,0.414,19.55,106.1211,14.94,15.93,80.9,0,110.6,13.18,15.75,72.0
"2016-07-01 01:42:00",1769893,7.474,109.4,4.032,0.356,19.56,106.1211,14.94,15.95,80.8,0,110.6,13.18,15.75,71.4
"2016-07-01 01:42:30",1769894,6.74,109.5,2.957,0.225,19.43,106.1211,14.94,15.95,80.8,0,110.6,13.18,15.75,71.5
"2016-07-01 01:43:00",1769895,7.157,101.4,6.37,0.45,19.5,106.1211,14.94,15.95,80.8,0,110.6,13.17,15.75,63.4
"2016-07-01 01:43:30",1769896,8.11,105.1,3.752,0.451,19.68,106.1211,14.94,15.95,80.8,0,110.6,13.17,15.75,67.1
"2016-07-01 01:44:00",1769897,7.026,108.1,1.925,0.337,19.48,106.1211,14.94,15.95,80.9,0,110.6,13.17,15.75,70.1
"2016-07-01 01:44:30",1769898,6.41,110.6,3.519,0.399,19.45,106.1211,14.94,15.95,80.9,0,110.6,13.17,15.75,72.6
"2016-07-01 01:45:00",1769899,5.803,112,3.486,0.322,19.39,106.1211,14.94,15.96,80.9,0,110.6,13.17,15.75,74.0
"2016-07-01 01:45:30",1769900,6.957,115.8,2.65,0.342,19.43,106.1211,14.94,15.95,80.9,0,110.6,13.17,15.75,77.8
"2016-07-01 01:46:00",1769901,7.407,105,3.424,0.786,19.57,106.1211,14.94,15.96,80.9,0,110.6,13.17,15.75,67.0
"2016-07-01 01:46:30",1769902,8.2,106.3,2.522,0.272,19.8,106.1211,14.94,15.96,80.9,0,110.6,13.17,15.75,68.3
"2016-07-01 01:47:00",1769903,7.63,107.8,2.05,0.203,19.62,106.1211,14.94,15.95,81,0,110.6,13.17,15.75,69.8
"2016-07-01 01:47:30",1769904,7.412,105.8,2.49,0.276,19.58,106.1211,14.94,15.95,81,0,110.6,13.17,15.75,67.8
"2016-07-01 01:48:00",1769905,7.158,106.6,3.232,0.332,19.61,106.1211,14.94,15.94,81,0,110.6,13.18,15.75,68.6
"2016-07-01 01:48:30",1769906,7.173,106.1,3.317,0.349,19.59,106.1211,14.94,15.96,81,0,110.6,13.18,15.75,68.1